Temp
67 68 69 69 69 69 69 68 68 68 69 70 69 69 69 68 68 69 69 69 69 68 68 68 69 69 68 67 67 66 66 66 65 65 65 65 64 64 64 64 64 65 65 64 64 63 62 60 60 59 57 54
66 66 67 67 67 67 67 66 66 66 66 66 67 67 66 66 67 68 68 68 68 68 68 67 68 67 67 67 66 66 65 65 65 65 65 64 64 64 64 64 64 64 65 64 63 62 61 59 58 58 57 53
65 64 64 64 64 65 65 65 65 64 64 64 64 64 64 64 65 65 65 66 66 66 66 65 66 65 66 66 66 65 65 65 65 65 64 64 64 63 63 63 63 62 63 63 63 61 60 58 58 57 54 52
64 63 62 62 62 63 63 63 62 62 61 61 61 62 62 62 62 63 62 63 62 63 63 63 62 64 65 65 65 65 65 65 65 64 64 63 63 63 62 61 60 60 61 62 61 60 58 57 56 51 50 50
63 62 61 61 61 61 60 60 60 60 60 60 60 60 60 59 58 57 58 59 59 60 59 61 62 62 63 65 65 64 64 64 64 64 63 63 63 61 60 57 57 58 59 59 59 58 56 55 51 49 49 50
62 62 62 62 61 60 60 60 59 59 58 57 58 59 58 57 56 57 58 58 57 58 58 59 60 61 62 64 64 64 64 63 64 63 63 63 62 60 58 56 48 49 54 57 57 56 55 51 49 48 49 49
61 62 61 61 61 59 59 57 57 57 57 57 57 58 58 56 56 57 57 57 56 57 58 58 59 59 61 62 62 63 62 62 62 62 62 62 61 58 56 48 46 45 47 47 54 52 50 48 49 48 48 48
61 61 61 60 60 59 59 59 59 58 57 56 57 58 58 57 57 56 56 54 54 54 56 57 57 56 57 58 59 58 57 59 58 59 60 60 57 52 48 45 44 46 45 46 47 47 47 47 47 48 47 46
59 59 59 59 59 59 59 59 59 58 58 56 56 57 57 56 55 55 55 55 55 55 55 54 53 52 50 49 49 53 48 48 49 48 45 46 46 43 46 45 45 47 47 47 47 47 46 46 46 46 47 47
59 59 59 59 59 59 58 58 57 57 56 57 57 56 54 54 54 54 55 55 54 54 54 52 51 50 48 47 47 47 47 45 46 44 43 44 45 43 43 43 43 42 44 46 44 44 45 46 46 45 43 46
57 58 58 58 58 58 57 56 55 54 54 55 55 55 54 54 54 54 54 53 53 52 51 49 48 48 47 47 46 46 46 44 43 43 42 42 41 40 42 42 42 41 41 41 43 43 42 43 45 44 43 43
56 56 56 55 55 56 55 53 53 53 53 54 54 53 54 55 55 55 53 51 50 48 48 46 46 46 47 46 44 45 45 45 44 42 41 41 41 42 41 42 41 42 41 40 40 42 41 42 43 44 42 42
56 56 56 54 53 53 53 52 52 53 53 53 53 53 54 55 54 53 52 50 49 48 46 45 45 45 44 44 43 44 44 44 44 42 41 42 41 41 40 40 43 41 41 40 41 43 42 41 42 42 43 42
55 54 53 52 51 51 51 51 51 52 51 51 52 51 51 52 52 52 51 49 49 48 45 44 43 43 43 43 42 43 43 41 41 41 42 41 41 42 41 42 42 40 41 41 39 39 42 41 40 39 39 40
53 52 51 51 51 51 50 50 50 50 50 50 50 49 49 50 51 50 50 49 48 47 46 44 43 42 42 42 41 41 42 42 41 40 41 42 41 42 42 41 39 40 42 40 41 39 41 40 41 42 41 41
50 49 49 50 50 49 49 50 50 49 49 48 48 48 48 49 49 49 48 48 47 47 46 45 44 44 43 41 40 41 41 42 41 41 41 42 41 40 41 41 41 41 41 40 40 40 41 40 42 39 39 39
50 49 48 48 48 48 48 49 49 48 47 47 47 47 47 47 48 48 47 46 46 46 46 45 44 43 43 43 41 41 40 41 41 41 41 41 41 42 41 42 41 41 40 40 40 40 41 40 41 40 41 41
49 48 47 47 47 46 46 47 46 46 46 45 45 45 45 46 47 46 47 46 46 46 45 44 44 43 42 43 43 42 41 40 40 39 40 39 40 42 41 40 40 40 40 40 40 42 39 39 40 41 43 41
45 45 44 44 44 43 42 43 43 43 43 43 43 43 43 44 45 46 45 46 45 44 43 42 41 41 41 42 42 42 42 41 39 39 39 39 38 39 39 39 39 39 39 40 41 41 40 41 42 41 42 42
43 42 42 42 42 41 41 40 40 40 41 41 41 41 40 40 41 43 43 43 43 42 42 40 39 38 38 39 40 39 39 39 39 39 39 38 38 37 36 37 37 37 37 38 39 39 40 41 42 42 42 42
39 40 40 40 40 39 39 39 39 39 39 39 39 39 38 38 39 39 41 41 41 40 40 39 38 38 37 37 35 34 35 35 36 36 37 37 37 36 34 34 34 35 35 36 38 38 38 39 40 40 42 42
37 37 38 37 37 38 37 37 38 38 38 37 37 37 36 37 37 37 37 38 39 38 38 37 36 35 35 35 34 32 31 31 32 32 33 33 34 34 32 31 31 31 32 34 35 36 35 37 36 37 39 40
37 37 37 36 35 34 35 35 35 36 35 35 35 34 35 35 35 35 35 36 36 36 35 35 34 33 33 33 32 30 29 28 29 29 30 30 30 32 31 30 29 29 30 32 33 34 35 35 36 36 36 38
36 37 36 34 34 33 32 33 32 33 33 33 33 33 33 33 33 33 33 34 34 34 33 33 32 31 31 31 30 28 26 26 26 26 27 29 29 28 30 30 28 29 28 30 29 31 33 32 33 35 35 36
35 34 33 34 32 31 31 31 31 30 31 31 31 31 31 31 31 31 32 32 32 32 32 31 31 30 30 29 28 26 25 26 26 26 26 26 29 28 27 27 27 27 27 30 30 28 30 31 32 33 33 34
37 36 34 32 32 31 31 30 29 28 29 29 29 30 30 30 30 30 30 30 30 30 30 29 29 29 28 28 27 26 26 26 26 25 25 25 26 28 26 25 26 25 27 25 23 24 28 28 33 32 30 32
35 35 34 33 31 30 29 31 30 29 30 30 29 29 29 29 29 29 29 29 28 28 28 28 27 27 27 26 26 25 24 24 23 23 23 23 23 23 26 25 26 24 25 18 22 22 22 22 27 30 30 29
36 35 34 34 32 32 30 28 29 29 29 28 28 27 28 28 28 28 27 28 28 27 27 26 26 26 25 25 26 25 23 23 23 23 22 23 23 21 21 21 22 25 23 21 20 18 20 20 19 22 23 25
35 34 33 32 32 32 31 30 29 27 25 26 26 26 25 26 27 27 27 26 26 26 25 25 25 24 24 25 25 25 24 23 22 23 22 22 22 21 19 18 19 22 23 21 23 17 17 16 17 16 21 24
35 33 31 30 29 26 25 24 23 22 22 23 23 23 25 25 26 26 26 26 26 25 25 24 24 24 23 22 22 23 23 22 22 21 21 22 22 21 22 19 18 17 22 21 21 20 19 16 15 16 19 22
34 32 31 30 28 27 25 23 23 24 25 24 24 24 23 24 24 25 24 24 25 25 24 23 23 23 22 22 22 22 21 21 20 21 21 22 21 21 22 20 16 16 16 17 19 19 18 20 19 16 16 13
MSLP
1020.07 1020.23 1020.47 1020.59 1020.75 1020.91 1021.07 1021.19 1021.27 1021.35 1021.35 1021.51 1021.79 1021.91 1022.11 1022.35 1022.59 1022.79 1022.95 1023.11 1023.31 1023.47 1023.59 1023.67 1023.71 1023.75 1023.87 1024.07 1024.19 1024.35 1024.51 1024.63 1024.75 1024.87 1024.87 1024.87 1024.91 1024.91 1024.91 1024.87 1024.79 1024.71 1024.75 1024.79 1024.79 1024.75 1024.79 1024.75 1024.75 1024.75 1024.79 1024.87
1020.11 1020.35 1020.55 1020.75 1020.91 1021.11 1021.23 1021.35 1021.43 1021.55 1021.63 1021.75 1021.95 1022.11 1022.35 1022.51 1022.71 1022.91 1023.11 1023.23 1023.39 1023.59 1023.71 1023.79 1023.83 1023.95 1024.11 1024.23 1024.39 1024.55 1024.71 1024.79 1024.87 1024.91 1024.99 1024.99 1025.03 1025.07 1025.07 1024.99 1024.95 1024.91 1024.87 1024.91 1024.91 1024.91 1024.99 1024.99 1024.99 1024.99 1025.03 1025.11
1020.19 1020.39 1020.67 1020.87 1021.07 1021.27 1021.43 1021.59 1021.71 1021.79 1021.87 1022.03 1022.19 1022.35 1022.55 1022.79 1022.91 1023.11 1023.27 1023.43 1023.55 1023.71 1023.87 1023.91 1023.91 1024.07 1024.23 1024.39 1024.55 1024.71 1024.83 1024.95 1024.95 1024.99 1025.11 1025.15 1025.19 1025.19 1025.19 1025.15 1025.11 1025.07 1025.07 1025.07 1025.07 1025.07 1025.19 1025.19 1025.19 1025.23 1025.27 1025.35
1020.43 1020.59 1020.79 1020.99 1021.23 1021.47 1021.67 1021.87 1021.99 1022.11 1022.19 1022.31 1022.47 1022.63 1022.83 1022.99 1023.19 1023.35 1023.51 1023.67 1023.91 1024.03 1024.11 1024.19 1024.23 1024.27 1024.35 1024.51 1024.67 1024.87 1024.99 1025.07 1025.07 1025.11 1025.23 1025.27 1025.31 1025.35 1025.35 1025.31 1025.31 1025.31 1025.27 1025.27 1025.27 1025.27 1025.43 1025.47 1025.47 1025.59 1025.63 1025.59
1020.63 1020.87 1020.95 1021.27 1021.51 1021.71 1021.91 1022.11 1022.27 1022.39 1022.51 1022.67 1022.79 1022.95 1023.15 1023.27 1023.55 1023.71 1023.87 1023.99 1024.19 1024.31 1024.39 1024.43 1024.47 1024.55 1024.59 1024.71 1024.87 1025.03 1025.11 1025.23 1025.23 1025.27 1025.35 1025.39 1025.51 1025.55 1025.55 1025.55 1025.59 1025.55 1025.51 1025.47 1025.47 1025.51 1025.63 1025.71 1025.75 1025.91 1025.83 1025.79
1020.79 1021.03 1021.19 1021.47 1021.75 1021.99 1022.19 1022.31 1022.47 1022.63 1022.79 1022.95 1023.11 1023.23 1023.39 1023.63 1023.83 1023.95 1024.11 1024.27 1024.39 1024.59 1024.67 1024.71 1024.75 1024.79 1024.79 1024.91 1025.03 1025.15 1025.23 1025.27 1025.35 1025.43 1025.47 1025.55 1025.67 1025.71 1025.75 1025.75 1025.83 1025.87 1025.79 1025.71 1025.67 1025.71 1025.75 1025.95 1026.07 1026.11 1026.11 1026.03
1020.87 1021.07 1021.39 1021.67 1021.87 1022.15 1022.35 1022.55 1022.71 1022.87 1022.99 1023.11 1023.27 1023.43 1023.59 1023.83 1023.99 1024.11 1024.31 1024.51 1024.67 1024.79 1024.91 1024.99 1025.07 1025.07 1025.11 1025.15 1025.23 1025.35 1025.43 1025.47 1025.51 1025.59 1025.67 1025.75 1025.79 1025.87 1025.91 1025.95 1025.99 1025.99 1026.03 1025.99 1025.91 1025.91 1026.03 1026.19 1026.23 1026.23 1026.27 1026.27
1020.99 1021.23 1021.47 1021.75 1022.03 1022.27 1022.47 1022.67 1022.87 1023.11 1023.27 1023.39 1023.51 1023.63 1023.75 1023.95 1024.19 1024.35 1024.59 1024.83 1024.91 1025.03 1025.19 1025.35 1025.47 1025.47 1025.47 1025.51 1025.51 1025.55 1025.67 1025.75 1025.79 1025.87 1025.87 1025.91 1025.95 1026.03 1026.11 1026.15 1026.15 1026.11 1026.15 1026.15 1026.19 1026.23 1026.27 1026.39 1026.39 1026.35 1026.39 1026.39
1021.11 1021.39 1021.63 1021.83 1022.15 1022.39 1022.55 1022.75 1023.03 1023.31 1023.47 1023.59 1023.67 1023.87 1023.99 1024.19 1024.43 1024.67 1024.79 1024.95 1025.11 1025.27 1025.39 1025.55 1025.67 1025.75 1025.83 1025.87 1025.91 1025.91 1025.99 1026.03 1026.11 1026.15 1026.19 1026.23 1026.27 1026.31 1026.31 1026.27 1026.35 1026.31 1026.27 1026.35 1026.35 1026.43 1026.47 1026.51 1026.55 1026.51 1026.47 1026.47
1020.99 1021.31 1021.63 1021.91 1022.19 1022.43 1022.67 1022.91 1023.19 1023.47 1023.67 1023.75 1023.83 1023.95 1024.19 1024.39 1024.59 1024.75 1024.91 1025.11 1025.27 1025.43 1025.55 1025.71 1025.87 1025.99 1026.07 1026.11 1026.19 1026.27 1026.23 1026.27 1026.31 1026.39 1026.43 1026.43 1026.47 1026.51 1026.59 1026.55 1026.59 1026.59 1026.51 1026.43 1026.51 1026.55 1026.59 1026.63 1026.71 1026.75 1026.67 1026.63
1021.23 1021.35 1021.59 1021.91 1022.31 1022.55 1022.95 1023.07 1023.31 1023.71 1023.91 1023.99 1024.07 1024.15 1024.23 1024.39 1024.67 1024.87 1025.15 1025.39 1025.55 1025.71 1025.83 1026.07 1026.27 1026.35 1026.39 1026.39 1026.47 1026.51 1026.43 1026.59 1026.75 1026.67 1026.67 1026.71 1026.75 1026.79 1026.75 1026.75 1026.79 1026.79 1026.79 1026.71 1026.63 1026.75 1026.79 1026.83 1026.87 1026.95 1026.99 1026.91
1021.35 1021.63 1021.79 1022.19 1022.55 1022.91 1023.27 1023.43 1023.59 1023.83 1024.07 1024.19 1024.23 1024.27 1024.27 1024.35 1024.63 1024.99 1025.43 1025.75 1025.91 1026.15 1026.23 1026.43 1026.55 1026.55 1026.63 1026.75 1026.87 1026.87 1026.83 1026.75 1026.79 1026.83 1026.99 1026.99 1026.99 1026.95 1026.99 1026.91 1026.91 1026.91 1026.95 1026.99 1026.87 1026.83 1026.95 1026.95 1027.03 1027.07 1027.19 1027.19
1021.35 1021.83 1022.11 1022.35 1022.79 1023.27 1023.55 1023.75 1023.83 1023.91 1024.15 1024.39 1024.51 1024.55 1024.51 1024.51 1024.87 1025.23 1025.59 1025.95 1026.23 1026.31 1026.55 1026.71 1026.75 1026.79 1026.95 1026.99 1027.07 1026.95 1026.99 1027.03 1026.95 1026.99 1027.07 1027.07 1027.11 1027.15 1027.07 1027.07 1027.03 1027.03 1027.03 1027.07 1027.07 1026.99 1027.03 1027.11 1027.15 1027.19 1027.19 1027.23
1021.51 1022.03 1022.51 1022.87 1022.95 1023.47 1023.79 1024.11 1024.19 1024.11 1024.39 1024.75 1024.83 1024.99 1024.91 1024.83 1025.11 1025.47 1025.75 1026.11 1026.35 1026.43 1026.83 1026.95 1027.03 1027.11 1027.27 1027.31 1027.35 1027.23 1027.23 1027.39 1027.23 1027.11 1027.07 1027.15 1027.19 1027.23 1027.23 1027.11 1027.31 1027.23 1027.15 1027.19 1027.19 1027.19 1027.15 1027.23 1027.31 1027.35 1027.35 1027.35
1021.99 1022.35 1022.87 1023.27 1023.31 1023.51 1024.03 1024.39 1024.39 1024.51 1024.83 1025.11 1025.31 1025.43 1025.35 1025.15 1025.31 1025.67 1025.95 1026.19 1026.47 1026.67 1026.95 1027.15 1027.31 1027.51 1027.51 1027.59 1027.71 1027.67 1027.63 1027.59 1027.51 1027.51 1027.55 1027.55 1027.47 1027.43 1027.47 1027.59 1027.71 1027.63 1027.51 1027.55 1027.55 1027.63 1027.51 1027.55 1027.47 1027.47 1027.51 1027.51
1022.51 1022.71 1023.35 1023.67 1023.71 1023.87 1024.27 1024.55 1024.71 1024.87 1025.19 1025.47 1025.67 1025.75 1025.75 1025.51 1025.59 1025.83 1026.19 1026.39 1026.63 1026.83 1027.03 1027.27 1027.47 1027.63 1027.71 1027.99 1027.99 1027.95 1027.91 1027.87 1027.91 1027.91 1027.91 1027.91 1027.95 1027.91 1027.87 1027.87 1027.91 1027.99 1027.79 1027.91 1028.03 1027.91 1027.75 1027.75 1027.59 1027.59 1027.59 1027.47
1022.99 1023.19 1023.67 1024.03 1024.11 1024.31 1024.55 1024.83 1025.03 1025.27 1025.59 1025.83 1025.99 1026.03 1026.03 1026.03 1025.95 1026.07 1026.35 1026.63 1026.79 1026.95 1027.19 1027.43 1027.55 1027.83 1028.07 1028.23 1028.23 1028.19 1028.19 1028.11 1028.15 1028.15 1028.19 1028.15 1028.19 1028.07 1028.07 1028.03 1028.15 1028.27 1028.27 1028.23 1028.27 1028.15 1028.11 1028.07 1027.87 1027.91 1027.79 1027.71
1023.27 1023.59 1024.03 1024.51 1024.55 1024.63 1024.99 1025.43 1025.51 1025.79 1025.99 1026.15 1026.35 1026.43 1026.39 1026.35 1026.39 1026.39 1026.59 1026.75 1027.03 1027.19 1027.47 1027.71 1027.87 1028.11 1028.35 1028.51 1028.47 1028.43 1028.39 1028.47 1028.59 1028.63 1028.59 1028.71 1028.51 1028.51 1028.47 1028.55 1028.67 1028.55 1028.51 1028.59 1028.51 1028.39 1028.43 1028.35 1028.27 1028.19 1027.95 1027.95
1023.87 1024.15 1024.55 1024.99 1025.03 1025.15 1025.55 1026.03 1026.15 1026.35 1026.47 1026.51 1026.71 1026.83 1026.83 1026.83 1026.87 1026.79 1026.91 1027.11 1027.31 1027.63 1027.87 1028.19 1028.47 1028.59 1028.75 1028.79 1028.75 1028.79 1028.87 1028.91 1028.95 1028.99 1029.11 1029.07 1028.95 1028.99 1028.99 1029.03 1029.07 1029.07 1028.99 1028.87 1028.67 1028.59 1028.55 1028.47 1028.39 1028.31 1028.19 1028.15
1024.27 1024.67 1025.11 1025.39 1025.63 1025.75 1026.07 1026.43 1026.79 1027.03 1026.95 1026.99 1027.03 1027.19 1027.35 1027.35 1027.43 1027.31 1027.31 1027.55 1027.75 1027.99 1028.31 1028.71 1029.03 1029.27 1029.23 1029.15 1029.15 1029.31 1029.39 1029.31 1029.43 1029.47 1029.43 1029.51 1029.43 1029.39 1029.59 1029.55 1029.47 1029.51 1029.39 1029.19 1028.95 1028.83 1028.71 1028.63 1028.55 1028.43 1028.39 1028.31
1024.91 1025.27 1025.63 1025.83 1026.11 1026.31 1026.59 1026.95 1027.39 1027.51 1027.39 1027.31 1027.43 1027.71 1027.91 1027.91 1027.99 1027.91 1027.83 1028.07 1028.35 1028.51 1028.83 1029.15 1029.43 1029.67 1029.63 1029.59 1029.71 1029.87 1029.99 1030.07 1030.19 1030.11 1029.95 1029.99 1030.03 1029.99 1030.19 1030.23 1030.15 1029.95 1029.83 1029.51 1029.19 1029.03 1028.83 1028.75 1028.71 1028.67 1028.67 1028.59
1025.47 1025.87 1026.19 1026.39 1026.55 1026.75 1027.15 1027.67 1027.91 1027.99 1027.75 1027.71 1027.95 1028.19 1028.51 1028.55 1028.59 1028.47 1028.39 1028.59 1028.91 1029.07 1029.35 1029.67 1029.99 1030.19 1030.07 1030.03 1030.11 1030.35 1030.51 1030.79 1030.79 1030.67 1030.55 1030.47 1030.51 1030.51 1030.51 1030.71 1030.75 1030.59 1030.27 1029.87 1029.43 1029.07 1028.79 1028.75 1028.87 1028.87 1028.83 1028.87
1026.03 1026.19 1026.51 1026.87 1027.11 1027.39 1027.87 1028.31 1028.59 1028.55 1028.35 1028.43 1028.55 1028.71 1028.99 1029.15 1029.19 1028.99 1028.91 1029.23 1029.47 1029.55 1029.87 1030.11 1030.43 1030.51 1030.67 1030.59 1030.67 1030.83 1031.03 1031.23 1031.27 1031.15 1031.07 1030.99 1030.95 1030.91 1031.07 1031.31 1031.31 1031.15 1030.75 1029.87 1029.47 1028.87 1028.75 1028.99 1028.99 1029.11 1029.19 1029.19
1026.43 1026.51 1026.67 1027.03 1027.59 1027.99 1028.59 1029.03 1029.15 1029.11 1029.15 1029.23 1029.27 1029.31 1029.31 1029.67 1029.75 1029.59 1029.51 1029.87 1030.11 1030.15 1030.35 1030.63 1030.91 1031.03 1031.15 1031.15 1031.15 1031.31 1031.59 1031.87 1031.91 1031.87 1031.51 1031.35 1031.31 1031.27 1031.23 1031.35 1031.47 1031.23 1030.83 1029.83 1029.39 1028.91 1028.71 1029.11 1029.15 1029.23 1029.51 1029.47
1026.95 1026.87 1027.03 1027.39 1027.95 1028.59 1029.15 1029.43 1029.59 1029.59 1029.87 1030.03 1030.03 1029.95 1029.91 1030.11 1030.35 1030.19 1030.15 1030.59 1030.79 1030.83 1030.91 1031.23 1031.47 1031.55 1031.71 1031.67 1031.71 1031.91 1032.35 1032.47 1032.39 1032.27 1032.15 1031.91 1031.71 1031.63 1031.59 1031.83 1031.87 1031.47 1031.23 1029.99 1028.35 1029.11 1028.91 1028.75 1029.27 1029.39 1029.59 1029.71
1026.91 1027.11 1027.27 1027.55 1028.43 1028.91 1029.43 1029.63 1029.71 1030.11 1030.47 1030.71 1030.71 1030.63 1030.79 1030.83 1030.75 1030.83 1031.03 1031.39 1031.55 1031.55 1031.59 1031.79 1031.95 1032.15 1032.23 1032.11 1032.23 1032.47 1032.67 1032.67 1032.63 1032.59 1032.51 1032.35 1031.99 1032.19 1032.27 1032.71 1032.71 1032.35 1030.87 1029.91 1031.07 1029.47 1028.87 1028.91 1028.87 1029.23 1029.39 1029.71
1027.31 1027.67 1027.99 1028.15 1028.99 1029.31 1029.71 1030.07 1030.27 1030.55 1030.99 1031.15 1031.27 1031.35 1031.39 1031.35 1031.35 1031.59 1031.75 1032.07 1032.27 1032.27 1032.43 1032.55 1032.63 1032.79 1032.67 1032.63 1032.71 1032.75 1032.91 1033.03 1033.07 1033.19 1033.15 1033.03 1032.79 1032.55 1032.75 1032.99 1033.03 1033.03 1032.67 1032.43 1032.27 1031.79 1030.31 1029.75 1028.99 1028.31 1028.95 1029.75
1027.95 1028.15 1028.51 1028.87 1029.19 1029.55 1029.63 1030.39 1030.87 1031.03 1031.39 1031.63 1031.75 1031.91 1031.99 1031.91 1032.15 1032.31 1032.43 1032.67 1032.91 1033.11 1033.27 1033.27 1033.35 1033.31 1033.15 1033.19 1033.23 1033.27 1033.39 1033.51 1033.67 1033.67 1033.63 1033.55 1033.43 1033.07 1033.03 1033.43 1033.67 1033.63 1033.59 1033.51 1032.19 1028.71 1030.55 1031.35 1031.39 1028.91 1030.07 1032.07
1028.39 1028.63 1028.91 1029.23 1029.51 1029.67 1030.03 1030.59 1031.07 1031.43 1031.95 1032.31 1032.55 1032.63 1032.63 1032.87 1032.95 1032.99 1033.11 1033.31 1033.51 1033.63 1033.83 1033.95 1033.99 1033.87 1033.83 1033.71 1033.75 1033.79 1033.87 1034.03 1034.23 1034.27 1034.27 1034.15 1033.99 1033.91 1033.83 1033.99 1034.11 1034.03 1034.03 1033.99 1033.91 1033.27 1031.47 1030.99 1030.15 1031.39 1032.67 1032.67
1028.43 1028.67 1028.91 1029.35 1029.63 1030.23 1030.71 1031.31 1031.87 1032.39 1032.91 1033.15 1033.31 1033.51 1033.67 1033.63 1033.63 1033.67 1033.75 1033.91 1034.03 1034.15 1034.27 1034.35 1034.39 1034.43 1034.39 1034.35 1034.31 1034.39 1034.55 1034.67 1034.63 1034.67 1034.63 1034.63 1034.59 1034.51 1034.51 1034.63 1034.51 1034.47 1034.43 1034.67 1034.67 1034.79 1034.79 1034.35 1033.03 1032.99 1033.47 1032.27
1028.79 1028.95 1029.27 1029.59 1030.07 1030.47 1031.07 1031.71 1032.63 1033.03 1033.31 1033.59 1033.91 1034.07 1034.15 1034.31 1034.31 1034.35 1034.43 1034.55 1034.59 1034.63 1034.67 1034.71 1034.79 1034.87 1034.87 1034.87 1034.87 1034.95 1034.99 1035.07 1035.23 1035.27 1035.27 1035.23 1035.03 1035.07 1034.99 1034.83 1035.19 1035.59 1035.43 1034.99 1035.03 1035.47 1035.39 1035.15 1035.19 1035.03 1033.95 1033.31
Wind_Speed
17 16 15 13 13 13 13 14 13 12 13 16 16 17 19 18 18 18 18 18 17 16 15 14 14 13 15 19 17 17 16 14 13 12 11 12 13 11 10 11 12 13 14 14 14 13 14 14 12 11 8 7
17 16 14 14 14 14 14 12 11 11 12 13 16 16 17 17 16 17 17 17 16 15 14 13 13 15 16 15 16 15 15 13 12 12 12 13 12 11 11 11 12 12 13 13 13 12 14 12 11 10 9 6
13 15 15 15 14 15 16 16 16 17 16 17 17 18 17 16 16 15 14 14 14 14 12 11 14 16 16 16 16 15 13 12 12 13 13 13 12 11 11 11 12 12 12 13 13 11 12 11 10 10 7 5
9 13 16 15 16 16 17 16 16 16 16 17 17 17 16 15 13 12 11 13 10 12 11 10 10 14 15 16 16 15 14 13 13 13 13 13 13 13 13 12 12 12 12 12 12 12 13 11 9 6 5 5
9 11 15 13 16 17 16 16 16 16 16 15 15 13 13 13 9 8 7 8 8 9 7 10 11 13 14 16 16 15 14 13 13 13 13 13 13 12 12 11 12 12 13 12 12 12 12 11 7 5 5 6
8 8 11 11 10 10 13 14 13 11 10 10 9 13 10 8 7 7 7 7 8 6 7 8 11 12 13 15 15 14 13 13 12 12 12 12 12 11 10 11 7 6 9 11 12 11 12 9 6 6 5 6
7 9 8 8 9 9 11 9 9 8 9 8 8 8 8 7 6 7 6 6 7 7 9 9 11 11 11 12 13 13 13 13 13 13 12 12 11 10 9 6 6 6 6 6 10 9 8 7 6 6 6 5
7 7 7 7 7 7 8 8 7 6 6 6 6 7 7 7 7 7 6 9 12 9 7 7 10 11 10 9 9 10 7 9 9 10 10 10 9 6 5 5 5 6 5 6 6 6 6 6 6 6 5 5
8 7 7 7 7 7 6 6 6 6 6 6 7 7 6 7 7 6 6 6 6 6 6 5 5 5 4 4 4 6 5 5 5 5 5 5 5 5 5 6 6 5 6 6 5 6 6 6 5 5 5 5
10 10 8 7 7 7 6 6 6 5 5 6 7 6 7 7 7 7 6 6 6 6 5 6 5 5 5 5 5 4 5 4 4 4 4 4 5 5 4 5 4 4 4 6 6 5 5 6 5 5 5 5
6 7 8 7 6 7 6 6 7 6 5 4 5 6 6 8 7 7 6 6 6 6 6 6 6 5 6 6 6 5 5 5 4 4 6 6 4 4 5 4 4 4 4 4 4 5 5 5 5 5 5 5
9 7 8 8 8 7 6 7 7 7 5 5 5 4 6 7 7 8 7 6 7 6 6 6 6 6 7 6 6 5 5 5 5 6 5 4 5 5 4 4 4 4 4 4 4 5 4 5 6 6 5 4
8 8 8 9 9 8 6 7 6 7 7 6 6 5 5 7 8 7 7 7 6 6 7 6 6 7 6 7 6 5 6 5 5 6 5 5 4 5 4 5 5 4 4 4 4 5 5 4 5 5 6 4
9 8 9 8 10 8 8 7 6 8 8 6 6 6 5 7 7 7 7 7 6 8 7 6 7 7 6 7 6 6 6 5 4 4 5 4 4 5 5 5 5 4 5 4 4 4 4 4 4 4 4 4
9 9 9 8 8 9 8 7 7 8 8 7 7 5 5 8 8 7 7 7 7 7 7 7 7 6 6 7 6 6 6 6 6 5 6 6 6 6 6 6 6 7 6 6 7 5 5 5 6 5 4 4
10 11 9 8 8 9 9 8 8 8 8 8 7 6 6 7 8 8 7 8 7 7 7 7 7 7 8 6 6 6 6 6 6 6 6 6 5 5 5 6 6 6 6 6 6 5 6 5 5 4 3 4
9 10 10 8 9 8 8 8 8 9 8 7 7 7 7 7 8 8 8 7 8 8 7 7 8 8 7 6 6 6 6 7 7 7 7 7 5 7 6 7 7 5 6 6 6 6 5 5 6 5 5 5
9 10 9 7 7 9 9 8 8 8 7 8 7 7 9 8 8 8 8 8 8 8 7 8 8 8 7 6 6 7 7 8 6 7 8 6 6 6 7 7 6 6 6 5 4 5 4 4 5 6 6 5
9 8 7 7 7 8 8 6 7 6 6 7 6 6 7 9 8 9 9 8 8 8 8 8 8 8 6 6 7 7 6 6 6 7 7 6 6 6 7 6 6 6 5 5 6 6 5 5 5 5 5 5
9 9 8 7 8 9 8 8 8 6 6 7 7 7 7 8 9 10 11 10 8 9 9 8 8 7 7 8 7 7 7 7 8 6 7 7 6 6 6 6 7 6 6 5 5 5 5 5 4 5 5 6
14 11 9 9 10 9 9 9 7 6 6 7 8 8 8 8 8 8 10 11 10 9 9 8 7 7 7 7 8 8 7 8 6 6 6 7 8 6 5 7 6 6 6 6 5 4 4 4 5 5 5 5
13 13 10 10 9 10 10 10 8 7 7 9 8 8 8 8 8 9 9 9 8 8 9 9 8 7 9 7 7 8 8 7 6 6 6 6 7 7 7 7 7 7 6 5 5 4 4 5 5 5 6 5
13 13 12 12 13 14 13 9 9 8 9 8 9 9 9 9 8 9 10 9 9 9 8 8 8 8 9 7 7 8 8 8 8 7 7 6 5 6 7 6 5 5 5 5 4 4 4 4 5 4 5 6
8 7 8 11 10 12 10 9 9 10 10 9 9 9 10 10 9 10 10 10 9 9 9 9 8 9 8 8 8 10 11 9 8 8 7 8 6 6 6 8 8 7 6 5 2 4 5 3 3 5 5 7
6 9 8 9 9 10 8 9 8 10 9 9 9 11 11 11 9 10 12 11 9 9 9 9 8 8 8 7 9 9 9 7 8 7 6 4 6 8 9 10 10 10 4 5 6 4 4 5 3 3 4 7
7 6 6 9 8 8 8 7 8 9 9 9 9 11 11 11 11 12 12 11 10 10 10 9 8 9 8 8 9 8 8 8 9 10 10 5 6 7 9 8 10 11 5 6 3 4 7 6 5 1 4 6
9 8 9 10 9 9 10 10 10 10 10 10 11 11 11 11 12 11 11 12 11 10 10 9 9 9 7 9 7 8 10 10 11 10 10 10 4 3 6 6 8 11 10 2 3 2 1 3 5 5 7 3
12 13 14 13 12 11 11 11 10 11 11 11 12 13 12 12 11 12 12 12 11 10 10 10 9 8 8 9 9 9 9 10 11 10 10 9 9 3 5 6 7 9 10 8 4 3 1 1 1 3 3 6
11 12 13 12 13 12 13 11 9 9 10 10 10 10 12 11 11 12 12 12 12 11 11 10 9 9 8 9 9 8 9 9 9 9 8 9 9 10 3 4 3 6 9 11 9 1 2 2 3 0 3 6
9 9 10 9 9 10 9 9 8 9 8 8 9 10 9 11 11 12 11 11 11 11 10 10 10 10 10 10 8 9 8 7 8 10 10 9 8 9 9 3 6 5 5 7 10 9 5 1 2 1 4 2
6 9 8 9 9 9 8 11 9 9 9 9 9 8 10 10 11 12 12 12 11 11 10 10 10 10 9 9 9 8 8 9 10 9 9 8 9 8 7 7 9 8 5 3 7 7 6 6 6 3 3 2
Wind_Direction
130 134 139 134 125 118 112 108 101 96 101 120 122 121 118 116 115 113 112 111 111 111 109 104 99 97 81 78 85 83 80 77 73 66 61 60 58 56 51 42 40 41 43 43 40 36 40 45 46 48 55 53
137 138 132 124 119 113 108 98 94 90 90 94 107 110 110 113 113 114 115 115 114 112 110 106 101 95 92 87 84 82 79 78 73 66 64 61 55 50 45 44 41 38 40 42 41 38 47 47 48 51 56 57
139 132 125 119 112 109 108 105 103 101 99 100 101 105 107 108 109 110 110 110 111 108 102 101 102 101 99 92 85 79 74 71 70 71 65 57 49 41 40 40 35 29 30 36 37 37 54 51 50 52 53 51
125 123 120 118 114 112 110 108 106 104 103 104 104 105 106 105 102 99 98 93 89 90 89 87 92 99 100 95 88 79 74 73 77 74 65 56 49 47 45 41 35 31 31 33 38 39 54 53 45 46 47 51
116 118 114 112 114 112 110 108 106 105 104 102 102 101 100 95 92 91 88 86 92 85 88 88 89 97 99 98 94 86 81 77 74 70 62 58 56 50 45 42 38 36 39 42 44 43 52 56 42 39 51 52
121 121 115 118 116 113 111 110 109 107 110 107 107 105 99 97 97 98 96 94 90 86 81 80 87 96 102 101 95 88 84 81 72 68 63 60 57 52 48 47 42 34 32 38 43 45 49 51 45 39 40 45
124 123 120 115 114 112 109 107 108 114 115 115 113 112 109 105 105 102 96 91 90 86 83 82 79 81 87 93 93 90 87 78 72 71 67 60 56 52 49 48 45 45 42 34 38 43 48 51 44 49 46 44
122 122 122 119 118 115 115 115 115 103 96 101 106 108 110 110 106 97 93 87 80 78 76 69 58 52 59 69 74 72 70 70 68 65 61 60 50 43 44 48 40 45 43 40 43 47 48 54 45 46 51 56
130 125 118 117 115 112 110 110 106 106 109 111 112 110 107 106 99 97 93 93 93 90 84 77 70 57 48 37 43 61 64 61 58 61 59 41 38 34 40 45 33 40 43 40 43 48 45 57 52 45 41 49
135 131 129 125 117 111 107 105 97 91 100 114 119 120 113 100 100 101 102 104 100 91 86 78 70 56 47 38 34 37 65 55 64 59 57 53 43 26 41 45 42 43 58 52 43 41 39 43 54 45 34 39
120 125 119 108 101 105 98 98 100 90 81 85 106 114 115 111 106 99 95 88 86 81 74 72 62 56 52 55 45 28 70 52 29 39 48 45 25 20 36 32 36 44 41 51 59 41 36 35 40 47 38 32
119 109 104 98 94 87 90 93 91 90 86 87 82 90 104 107 104 105 97 86 80 79 72 69 69 67 58 56 45 40 62 70 44 45 48 52 34 34 25 36 31 37 37 28 46 53 32 33 35 32 41 40
114 110 103 102 94 85 81 80 84 92 84 76 73 67 85 100 103 98 93 88 84 82 74 68 61 59 54 49 35 39 44 47 55 48 50 53 52 39 27 30 26 32 29 35 33 55 41 35 29 24 24 30
106 105 98 90 95 96 83 76 77 80 76 64 67 67 70 80 89 89 96 94 84 82 74 65 57 56 51 51 31 34 37 14 47 48 47 43 42 38 17 23 7 35 36 27 25 32 54 35 34 38 28 19
96 91 89 92 97 93 85 83 79 75 74 69 61 56 67 84 86 91 85 88 87 83 78 68 63 53 50 46 31 36 40 22 28 34 42 37 39 36 34 23 13 21 29 18 18 7 23 4 27 20 14 27
93 93 89 87 85 88 91 87 81 79 75 70 64 54 53 70 82 86 83 84 84 82 79 73 69 58 51 42 34 37 41 40 34 41 36 37 41 46 53 46 36 33 52 37 23 21 27 9 34 14 6 27
92 89 88 85 86 81 79 80 80 76 70 67 59 54 56 58 70 75 82 79 79 79 76 73 72 63 53 46 41 39 38 44 34 34 27 24 20 35 38 38 23 20 40 32 10 18 13 6 5 357 3 5
93 90 87 77 75 78 73 68 70 72 71 68 61 56 53 58 58 68 70 76 73 69 70 65 64 63 54 41 42 43 37 43 33 36 34 15 28 29 38 38 21 25 21 10 1 15 356 3 356 349 356 354
75 67 74 69 67 65 64 52 53 52 57 56 50 47 47 50 55 62 63 61 72 68 67 61 54 50 46 42 43 44 32 40 37 38 38 22 30 30 33 30 30 24 17 2 3 351 353 358 345 355 350 347
71 70 67 66 68 66 60 65 56 44 42 55 50 49 41 40 45 56 60 58 59 70 64 63 57 44 40 43 49 44 36 34 32 25 39 31 30 42 30 22 15 15 6 355 350 342 348 343 352 346 350 351
80 73 69 71 69 61 62 62 59 45 50 54 51 43 42 32 39 33 59 61 56 61 59 56 50 39 41 47 53 50 42 41 22 25 35 40 33 45 45 30 9 4 360 344 335 335 337 339 345 358 353 347
92 86 74 66 65 65 61 57 54 49 49 57 53 49 42 32 43 43 42 45 46 60 60 59 52 38 37 40 50 53 47 42 28 33 32 47 36 38 44 32 16 353 340 326 324 326 330 333 358 357 357 1
90 91 90 84 77 71 64 53 47 45 48 48 55 52 45 39 39 44 44 42 43 56 56 56 52 48 38 41 51 53 47 35 27 29 28 47 36 46 54 46 16 347 316 317 318 325 325 350 358 359 32 42
89 90 92 94 84 75 65 61 58 50 50 42 50 49 50 44 39 43 48 42 43 55 55 56 51 51 44 45 52 53 47 34 28 20 23 30 35 36 42 36 13 357 345 314 341 336 334 12 6 52 51 49
99 98 91 77 76 85 82 78 68 62 51 48 43 47 46 47 45 42 48 43 42 50 57 56 54 52 47 48 56 57 54 45 39 32 28 24 36 41 43 25 9 358 332 6 351 356 348 347 16 66 59 59
92 77 76 98 92 93 83 75 68 68 56 51 47 47 51 49 47 47 48 45 43 49 51 53 52 51 47 48 56 62 57 48 42 36 34 15 51 38 56 46 16 357 8 28 35 344 331 348 337 28 40 60
90 84 83 90 97 93 89 69 73 74 69 61 57 53 48 49 47 48 51 48 44 47 45 50 54 52 47 52 50 56 49 42 42 34 33 30 42 36 47 62 30 23 34 33 296 241 49 350 14 328 7 352
87 90 92 87 89 86 83 90 78 72 66 59 55 52 49 47 49 50 53 49 50 50 48 45 50 49 47 49 51 56 58 48 45 35 32 31 31 32 62 32 31 34 24 35 5 29 58 282 82 337 2 345
95 96 93 95 91 88 88 76 72 67 58 54 57 58 48 45 48 50 54 51 51 52 50 47 45 46 46 48 42 48 52 50 44 43 40 34 40 36 57 49 39 23 31 36 29 104 48 8 28 235 279 333
106 108 111 112 107 99 88 75 56 59 66 61 57 58 58 54 49 52 54 53 52 52 51 50 47 48 51 48 46 45 51 50 46 41 40 34 39 43 34 68 50 26 17 39 38 33 54 131 165 302 297 29
81 83 81 82 83 85 91 97 84 84 77 76 72 68 63 58 51 50 53 51 51 51 50 49 48 49 50 51 51 49 50 48 46 42 44 34 41 42 38 41 61 39 355 4 32 29 31 43 42 33 56 12